KBAD

Barksdale Air Force Base

Airport
ICAO code
KBAD
IATA Code
BAD
Summary
ICAO Region
NAM
ICAO Territory
Location

Bossier City, Louisiana

Serving
Bossier City
Elevation
165 ft
Coordinates
32° 30' 7" N , 93° 39' 26" W
KCC
Metar
KBAD 191115Z AUTO 15004KT 6SM BR SCT018 BKN043 21/20 A2999 RMK AO2 SLP158

Description

Barksdale Air Force Base is a United States Air Force installation located to the east and southeast of Bossier City, Louisiana.

Airport map

Aerial View

SKYbrary Partners:

Safety knowledge contributed by: